Rocky Mount, NC

11:02 PM EDT on March 26, 2017 (GMT -0400)
Rocky Mount-Wilson Regional

Weather History for KRWI - January, 2012

Change the Weather History Date:

Tuesday, January 17, 2012

  Actual Average Record
Temperature  
Mean Temperature 62 °F -  
Max Temperature 66 °F 50 °F 71 °F (1974)
Min Temperature 57 °F 25 °F 5 °F (1977)
Degree Days  
Heating Degree Days 2    
Growing Degree Days 12 (Base 50)    
Moisture  
Dew Point 50 °F    
Average Humidity 65    
Maximum Humidity 93    
Minimum Humidity 54    
Precipitation  
Precipitation 0.18 in - - ()
Sea Level Pressure  
Sea Level Pressure 30.11 in    
Wind  
Wind Speed 12 mph (SSW)    
Max Wind Speed 24 mph    
Max Gust Speed 34 mph    
Visibility 10 miles    
Events Rain    
Averages and records for this station are not official NWS values.
T = Trace of Precipitation, MM = Missing Value Source: NWS Daily Summary

Daily Weather History Graph

Daily Weather History Graph

Search for Another Location

Airport or City:

Trip Planner

Search our weather history database for the weather conditions in past years. The results will help you decide how hot, cold, wet, or windy it might be!

Date:

Astronomy

Jan. 17, 2012 Rise Set
Actual Time 7:20 AM EST 5:22 PM EST
Civil Twilight 6:52 AM EST 5:50 PM EST
Nautical Twilight 6:21 AM EST 6:21 PM EST
Astronomical Twilight 5:50 AM EST 6:52 PM EST
Moon 1:39 AM EST (1/17) 12:13 PM EST (1/17)
Length of Visible Light 10h 57m
Length of Day
10h 02m
Waning Crescent, 35% of the Moon is Illuminated
Jan 17
Waning Crescent
Jan 23
New
Jan 30
First Quarter
Feb 7
Full
Feb 14
Last Quarter

Hourly Weather History & Observations

Time (EST) Temp. Dew Point Humidity Pressure Visibility Wind Dir Wind Speed Gust Speed Precip Events Conditions
12:53 AM - - N/A% 30.33 in 10.0 mi South 10.4 mph - N/A   Mostly Cloudy
1:53 AM - - N/A% 30.31 in 10.0 mi SSW 8.1 mph - N/A   Overcast
2:53 AM - - N/A% 30.29 in 10.0 mi SSW 8.1 mph - N/A   Overcast
3:53 AM - - N/A% 30.26 in 10.0 mi SSW 8.1 mph - N/A   Mostly Cloudy
4:53 AM - - N/A% 30.25 in 10.0 mi SSW 6.9 mph - N/A   Clear
5:53 AM - - N/A% 30.24 in 10.0 mi SSW 8.1 mph - N/A   Clear
6:53 AM - - N/A% 30.23 in 10.0 mi SSW 9.2 mph - N/A   Mostly Cloudy
7:53 AM - - N/A% 30.22 in 10.0 mi SSW 9.2 mph - N/A   Clear
8:53 AM - - N/A% 30.22 in 10.0 mi SSW 6.9 mph - N/A   Clear
9:53 AM - - N/A% 30.20 in 10.0 mi SW 15.0 mph 24.2 mph N/A   Scattered Clouds
10:53 AM 61.0 °F 48.0 °F 62% 30.18 in 10.0 mi SW 20.7 mph 31.1 mph N/A   Clear
11:53 AM 62.1 °F 48.9 °F 62% 30.14 in - SW 21.9 mph 32.2 mph 0.07 in   Mostly Cloudy
12:53 PM 61.0 °F 50.0 °F 67% 30.10 in 10.0 mi SW 15.0 mph 23.0 mph 0.00 in Rain Light Rain
1:53 PM 63.0 °F 48.9 °F 60% 30.03 in 10.0 mi SSW 24.2 mph 34.5 mph 0.00 in   Mostly Cloudy
2:53 PM 66.0 °F 48.9 °F 54% 30.01 in 10.0 mi SSW 15.0 mph 26.5 mph N/A   Overcast
3:53 PM 64.9 °F 48.0 °F 54% 30.00 in 10.0 mi SSW 20.7 mph 28.8 mph N/A   Clear
4:53 PM 64.0 °F 48.9 °F 58% 29.99 in 10.0 mi SSW 18.4 mph 28.8 mph N/A   Clear
5:53 PM 62.1 °F 48.0 °F 60% 29.97 in 10.0 mi SSW 12.7 mph 23.0 mph N/A   Clear
6:53 PM 61.0 °F 48.9 °F 64% 29.97 in 10.0 mi SSW 13.8 mph 20.7 mph N/A   Clear
7:53 PM 61.0 °F 48.9 °F 64% 29.96 in 10.0 mi SSW 16.1 mph 21.9 mph N/A   Clear
8:53 PM 61.0 °F 50.0 °F 67% 29.95 in 10.0 mi SW 12.7 mph 19.6 mph N/A   Clear
9:53 PM 61.0 °F 50.0 °F 67% 29.93 in 10.0 mi SSW 12.7 mph 21.9 mph N/A   Mostly Cloudy
10:53 PM 59.0 °F 52.0 °F 78% 29.94 in 9.0 mi SSW 18.4 mph 25.3 mph 0.00 in Rain Light Rain
11:53 PM 57.0 °F 55.0 °F 93% 29.92 in 6.0 mi SSW 18.4 mph 28.8 mph 0.11 in Rain Rain